This is the latest recevied weather packets stored in our database for station/object IT9CNT. If no packets are shown the sender has not sent any weather packets the latest 10 day(s).
| Time | Temp. | Humidity | Pressure | Rain* | Wind** | Luminosity | Snow |
|---|---|---|---|---|---|---|---|
| 1787986863 | 33.89° C | 42% | 1013.8 hPa | 0 mm | - | - | - |
| 1787986803 | 33.89° C | 44% | 1014 hPa | 0 mm | - | - | - |
| 1787986743 | 33.33° C | 39% | 1014.2 hPa | 0 mm | - | - | - |
| 1787986683 | 33.33° C | 39% | 1014 hPa | 0 mm | - | - | - |
| 1787986623 | 32.78° C | 40% | 1014 hPa | 0 mm | - | - | - |
| 1787986563 | 32.78° C | 40% | 1014 hPa | 0 mm | - | - | - |
| 1787986503 | 32.78° C | 43% | 1014 hPa | 0 mm | - | - | - |
| 1787986443 | 32.78° C | 43% | 1014.3 hPa | 0 mm | - | - | - |
| 1787986383 | 32.78° C | 43% | 1014 hPa | 0 mm | - | - | - |
| 1787986323 | 32.78° C | 43% | 1013.9 hPa | 0 mm | - | - | - |
| 1787986263 | 32.78° C | 46% | 1014.1 hPa | 0 mm | - | - | - |
| 1787986203 | 32.22° C | 43% | 1014.1 hPa | 0 mm | - | - | - |
| 1787986143 | 32.22° C | 43% | 1014 hPa | 0 mm | - | - | - |
| 1787986083 | 32.22° C | 44% | 1014.1 hPa | 0 mm | - | - | - |
| 1787986023 | 32.22° C | 44% | 1013.9 hPa | 0 mm | - | - | - |
| 1787985963 | 31.67° C | 45% | 1014.2 hPa | 0 mm | - | - | - |
| 1787985903 | 31.67° C | 45% | 1013.9 hPa | 0 mm | - | - | - |
| 1787985843 | 31.67° C | 45% | 1013.9 hPa | 0 mm | - | - | - |
| 1787985783 | 31.67° C | 45% | 1014 hPa | 0 mm | - | - | - |
| 1787985723 | 31.67° C | 45% | 1013.9 hPa | 0 mm | - | - | - |
| 1787985663 | 31.67° C | 45% | 1013.9 hPa | 0 mm | - | - | - |
| 1787985603 | 31.67° C | 46% | 1013.8 hPa | 0 mm | - | - | - |
| 1787985543 | 31.67° C | 46% | 1013.9 hPa | 0 mm | - | - | - |
| 1787985484 | 31.67° C | 46% | 1014 hPa | 0 mm | - | - | - |
| 1787985423 | 31.67° C | 46% | 1014.1 hPa | 0 mm | - | - | - |
* Rain latest hour (hover to see other rain measurements)
** Current wind speed in m/s (hover to see current wind gust speed)